Location: Pilipovskiye Korichintsy
(49.1833°N, 27.4667°E)
Time: 22:24:53
(UTC+00:00)

Cosmos 1544 - Pass Details

Date: 14 July 2020
Orbit: 473 x 490 km, 82.5° (Epoch: 10 August)

Event Time Altitude Azimuth Distance (km) Brightness Sun altitude
Exits shadow 01:25:42 - 180° (S) 2,284 6.0 -7.6°
Reaches altitude 10° 01:27:15 10° 177° (S) 1,638 5.3 -7.4°
Maximum altitude 01:30:46 62° 97° (E) 539 3.5 -7.0°
Drops below altitude 10° 01:34:21 10° 16° (NNE) 1,653 6.9 -6.6°
Sets 01:36:28 0° 13° (NNE) 2,538 7.8 -6.4°
